Time,TemperatureF,DewpointF,PressureIn,WindDirection,WindDirectionDegrees,WindSpeedMPH,WindSpeedGustMPH,Humidity,HourlyPrecipIn,Conditions,Clouds,dailyrainin,SoftwareType,DateUTC
2013-02-15 00:04:00,16.8,3.0,30.22,West,271,0.0,5.0,55,0.00,,,0.00,weatherlink.com 1.10,2013-02-15 07:04:00,
2013-02-15 00:19:00,16.2,3.0,30.22,WSW,252,0.0,4.0,57,0.00,,,0.00,weatherlink.com 1.10,2013-02-15 07:19:00,
2013-02-15 00:34:00,16.0,4.0,30.22,SW,218,0.0,3.0,59,0.00,,,0.00,weatherlink.com 1.10,2013-02-15 07:34:00,
2013-02-15 00:49:00,15.1,3.0,30.22,SSW,203,0.0,0.0,60,0.00,,,0.00,weatherlink.com 1.10,2013-02-15 07:49:00,
2013-02-15 01:04:00,14.3,3.0,30.21,West,263,0.0,2.0,62,0.00,,,0.00,weatherlink.com 1.10,2013-02-15 08:04:00,
2013-02-15 01:19:00,14.2,4.0,30.22,SW,229,0.0,1.0,63,0.00,,,0.00,weatherlink.com 1.10,2013-02-15 08:19:00,
2013-02-15 01:34:00,13.7,4.0,30.21,SW,229,0.0,1.0,65,0.00,,,0.00,weatherlink.com 1.10,2013-02-15 08:34:00,
2013-02-15 01:50:00,13.9,5.0,30.21,SW,236,0.0,3.0,68,0.00,,,0.00,weatherlink.com 1.10,2013-02-15 08:50:00,
2013-02-15 02:04:00,15.2,6.0,30.21,SSW,198,0.0,6.0,67,0.00,,,0.00,weatherlink.com 1.10,2013-02-15 09:04:00,
2013-02-15 02:19:00,15.1,7.0,30.22,WSW,249,0.0,2.0,70,0.00,,,0.00,weatherlink.com 1.10,2013-02-15 09:19:00,
2013-02-15 02:34:00,14.6,6.0,30.22,SW,219,0.0,4.0,70,0.00,,,0.00,weatherlink.com 1.10,2013-02-15 09:34:00,
2013-02-15 02:49:00,14.0,6.0,30.22,WSW,255,0.0,0.0,69,0.00,,,0.00,weatherlink.com 1.10,2013-02-15 09:49:00,
2013-02-15 03:04:00,12.6,5.0,30.22,WSW,255,0.0,0.0,70,0.00,,,0.00,weatherlink.com 1.10,2013-02-15 10:04:00,
2013-02-15 03:20:00,12.7,5.0,30.22,WSW,246,0.0,5.0,72,0.00,,,0.00,weatherlink.com 1.10,2013-02-15 10:20:00,
2013-02-15 03:34:00,14.1,6.0,30.21,WSW,247,0.0,2.0,69,0.00,,,0.00,weatherlink.com 1.10,2013-02-15 10:34:00,
2013-02-15 03:49:00,14.4,5.0,30.21,WSW,254,0.0,5.0,66,0.00,,,0.00,weatherlink.com 1.10,2013-02-15 10:49:00,
2013-02-15 04:05:00,14.4,5.0,30.21,WSW,246,0.0,3.0,65,0.00,,,0.00,weatherlink.com 1.10,2013-02-15 11:05:00,
2013-02-15 04:23:00,12.8,3.0,30.22,WSW,246,0.0,1.0,65,0.00,,,0.00,weatherlink.com 1.10,2013-02-15 11:23:00,
2013-02-15 04:35:00,11.8,2.0,30.22,WSW,254,0.0,1.0,65,0.00,,,0.00,weatherlink.com 1.10,2013-02-15 11:35:00,
2013-02-15 04:50:00,11.4,1.0,30.22,SW,236,0.0,2.0,63,0.00,,,0.00,weatherlink.com 1.10,2013-02-15 11:50:00,
2013-02-15 05:05:00,11.9,0.0,30.22,WSW,254,0.0,5.0,58,0.00,,,0.00,weatherlink.com 1.10,2013-02-15 12:05:00,
2013-02-15 05:20:00,12.6,0.0,30.23,WSW,244,0.0,10.0,58,0.00,,,0.00,weatherlink.com 1.10,2013-02-15 12:20:00,
2013-02-15 05:35:00,13.4,-1.0,30.23,West,279,1.0,9.0,53,0.00,,,0.00,weatherlink.com 1.10,2013-02-15 12:35:00,
2013-02-15 05:50:00,14.1,-1.0,30.23,West,269,4.0,8.0,52,0.00,,,0.00,weatherlink.com 1.10,2013-02-15 12:50:00,
2013-02-15 06:05:00,14.6,-1.0,30.24,West,279,2.0,10.0,51,0.00,,,0.00,weatherlink.com 1.10,2013-02-15 13:05:00,
2013-02-15 06:20:00,13.8,-1.0,30.23,North,360,0.0,9.0,53,0.00,,,0.00,weatherlink.com 1.10,2013-02-15 13:20:00,
2013-02-15 06:35:00,14.7,-1.0,30.24,WSW,257,1.0,17.0,51,0.00,,,0.00,weatherlink.com 1.10,2013-02-15 13:35:00,
2013-02-15 06:50:00,15.1,0.0,30.25,WSW,246,0.0,6.0,52,0.00,,,0.00,weatherlink.com 1.10,2013-02-15 13:50:00,
2013-02-15 07:06:00,14.3,2.0,30.27,WSW,250,0.0,9.0,58,0.00,,,0.00,weatherlink.com 1.10,2013-02-15 14:06:00,
2013-02-15 07:20:00,14.0,2.0,30.28,WSW,258,0.0,2.0,60,0.00,,,0.00,weatherlink.com 1.10,2013-02-15 14:20:00,
2013-02-15 07:36:00,14.4,3.0,30.28,WSW,246,0.0,3.0,60,0.00,,,0.00,weatherlink.com 1.10,2013-02-15 14:36:00,
2013-02-15 07:51:00,15.2,3.0,30.28,WSW,254,0.0,4.0,59,0.00,,,0.00,weatherlink.com 1.10,2013-02-15 14:51:00,
2013-02-15 08:08:00,16.4,3.0,30.29,WSW,245,0.0,3.0,57,0.00,,,0.00,weatherlink.com 1.10,2013-02-15 15:08:00,
2013-02-15 08:21:00,17.5,5.0,30.29,NNW,327,0.0,6.0,57,0.00,,,0.00,weatherlink.com 1.10,2013-02-15 15:21:00,
2013-02-15 08:36:00,18.6,5.0,30.31,WNW,286,3.0,8.0,56,0.00,,,0.00,weatherlink.com 1.10,2013-02-15 15:36:00,
2013-02-15 08:51:00,19.3,5.0,30.31,WSW,252,4.0,9.0,55,0.00,,,0.00,weatherlink.com 1.10,2013-02-15 15:51:00,
2013-02-15 09:06:00,19.9,5.0,30.31,West,264,3.0,13.0,53,0.00,,,0.00,weatherlink.com 1.10,2013-02-15 16:06:00,
2013-02-15 09:21:00,20.7,6.0,30.30,West,261,5.0,9.0,53,0.00,,,0.00,weatherlink.com 1.10,2013-02-15 16:21:00,
2013-02-15 09:36:00,22.5,6.0,30.30,West,279,2.0,12.0,49,0.00,,,0.00,weatherlink.com 1.10,2013-02-15 16:36:00,
2013-02-15 09:52:00,23.4,5.0,30.30,WNW,283,4.0,11.0,46,0.00,,,0.00,weatherlink.com 1.10,2013-02-15 16:52:00,
2013-02-15 10:07:00,23.0,3.0,30.30,WNW,283,0.0,15.0,43,0.00,,,0.00,weatherlink.com 1.10,2013-02-15 17:07:00,
2013-02-15 10:22:00,23.3,3.0,30.31,West,267,5.0,13.0,42,0.00,,,0.00,weatherlink.com 1.10,2013-02-15 17:22:00,
2013-02-15 10:37:00,23.6,3.0,30.32,NNW,336,4.0,9.0,41,0.00,,,0.00,weatherlink.com 1.10,2013-02-15 17:37:00,
2013-02-15 10:52:00,24.7,4.0,30.31,WSW,253,2.0,12.0,41,0.00,,,0.00,weatherlink.com 1.10,2013-02-15 17:52:00,
2013-02-15 11:07:00,24.9,5.0,30.32,West,273,0.0,18.0,42,0.00,,,0.00,weatherlink.com 1.10,2013-02-15 18:07:00,
2013-02-15 11:22:00,26.0,3.0,30.32,WNW,291,3.0,14.0,38,0.00,,,0.00,weatherlink.com 1.10,2013-02-15 18:22:00,
2013-02-15 11:38:00,25.6,3.0,30.32,West,275,7.0,14.0,38,0.00,,,0.00,weatherlink.com 1.10,2013-02-15 18:38:00,
2013-02-15 11:52:00,26.0,3.0,30.31,NNW,338,4.0,12.0,38,0.00,,,0.00,weatherlink.com 1.10,2013-02-15 18:52:00,
2013-02-15 12:07:00,26.1,3.0,30.31,WNW,284,4.0,14.0,37,0.00,,,0.00,weatherlink.com 1.10,2013-02-15 19:07:00,
2013-02-15 12:22:00,25.7,3.0,30.31,West,280,7.0,19.0,37,0.00,,,0.00,weatherlink.com 1.10,2013-02-15 19:22:00,
2013-02-15 12:37:00,26.0,4.0,30.30,West,269,4.0,13.0,39,0.00,,,0.00,weatherlink.com 1.10,2013-02-15 19:37:00,
2013-02-15 12:52:00,26.1,2.0,30.30,West,281,7.0,16.0,36,0.00,,,0.00,weatherlink.com 1.10,2013-02-15 19:52:00,
2013-02-15 13:07:00,25.7,1.0,30.31,WNW,294,3.0,19.0,35,0.00,,,0.00,weatherlink.com 1.10,2013-02-15 20:07:00,
2013-02-15 13:23:00,25.3,0.0,30.31,West,280,8.0,18.0,34,0.00,,,0.00,weatherlink.com 1.10,2013-02-15 20:23:00,
2013-02-15 13:37:00,25.7,0.0,30.32,NNW,330,7.0,17.0,33,0.00,,,0.00,weatherlink.com 1.10,2013-02-15 20:37:00,
2013-02-15 13:53:00,25.7,1.0,30.31,SW,218,5.0,17.0,35,0.00,,,0.00,weatherlink.com 1.10,2013-02-15 20:53:00,
2013-02-15 14:08:00,26.0,2.0,30.32,WSW,248,11.0,15.0,35,0.00,,,0.00,weatherlink.com 1.10,2013-02-15 21:08:00,
2013-02-15 14:23:00,25.2,2.0,30.33,WSW,250,6.0,16.0,37,0.00,,,0.00,weatherlink.com 1.10,2013-02-15 21:23:00,
2013-02-15 14:38:00,24.8,4.0,30.34,NW,315,11.0,21.0,41,0.00,,,0.00,weatherlink.com 1.10,2013-02-15 21:38:00,
2013-02-15 14:54:00,24.6,4.0,30.34,WSW,247,5.0,14.0,41,0.00,,,0.00,weatherlink.com 1.10,2013-02-15 21:54:00,
2013-02-15 15:08:00,24.2,4.0,30.35,West,277,7.0,17.0,42,0.00,,,0.00,weatherlink.com 1.10,2013-02-15 22:08:00,
2013-02-15 15:23:00,23.3,5.0,30.36,NNW,327,3.0,14.0,45,0.00,,,0.00,weatherlink.com 1.10,2013-02-15 22:23:00,
2013-02-15 15:38:00,23.5,4.0,30.36,West,279,5.0,11.0,44,0.00,,,0.00,weatherlink.com 1.10,2013-02-15 22:38:00,
2013-02-15 15:53:00,23.6,5.0,30.37,WNW,293,3.0,9.0,46,0.00,,,0.00,weatherlink.com 1.10,2013-02-15 22:53:00,
2013-02-15 16:09:00,23.5,4.0,30.37,NNW,329,5.0,9.0,44,0.00,,,0.00,weatherlink.com 1.10,2013-02-15 23:09:00,
2013-02-15 16:24:00,22.9,3.0,30.37,NW,309,2.0,16.0,42,0.00,,,0.00,weatherlink.com 1.10,2013-02-15 23:24:00,
2013-02-15 16:39:00,22.3,3.0,30.38,NNW,342,1.0,14.0,43,0.00,,,0.00,weatherlink.com 1.10,2013-02-15 23:39:00,
2013-02-15 16:54:00,21.9,2.0,30.38,West,267,2.0,9.0,43,0.00,,,0.00,weatherlink.com 1.10,2013-02-15 23:54:00,
2013-02-15 17:09:00,21.5,3.0,30.39,WSW,256,7.0,15.0,44,0.00,,,0.00,weatherlink.com 1.10,2013-02-16 00:09:00,
2013-02-15 17:24:00,20.9,2.0,30.39,West,269,1.0,8.0,43,0.00,,,0.00,weatherlink.com 1.10,2013-02-16 00:24:00,
2013-02-15 17:39:00,20.3,2.0,30.39,WSW,249,0.0,8.0,44,0.00,,,0.00,weatherlink.com 1.10,2013-02-16 00:39:00,
2013-02-15 17:54:00,19.7,2.0,30.40,NW,308,0.0,6.0,46,0.00,,,0.00,weatherlink.com 1.10,2013-02-16 00:54:00,
2013-02-15 18:10:00,19.0,2.0,30.40,WSW,254,9.0,10.0,47,0.00,,,0.00,weatherlink.com 1.10,2013-02-16 01:10:00,
2013-02-15 18:24:00,18.8,2.0,30.41,North,355,0.0,6.0,48,0.00,,,0.00,weatherlink.com 1.10,2013-02-16 01:24:00,
2013-02-15 18:39:00,18.5,2.0,30.42,WSW,249,5.0,6.0,48,0.00,,,0.00,weatherlink.com 1.10,2013-02-16 01:39:00,
2013-02-15 18:54:00,18.2,2.0,30.42,WSW,241,2.0,6.0,49,0.00,,,0.00,weatherlink.com 1.10,2013-02-16 01:54:00,
2013-02-15 19:10:00,18.4,2.0,30.43,West,280,0.0,17.0,49,0.00,,,0.00,weatherlink.com 1.10,2013-02-16 02:10:00,
2013-02-15 19:25:00,18.6,3.0,30.43,West,269,0.0,8.0,50,0.00,,,0.00,weatherlink.com 1.10,2013-02-16 02:25:00,
2013-02-15 19:40:00,18.9,3.0,30.42,West,281,17.0,18.0,49,0.00,,,0.00,weatherlink.com 1.10,2013-02-16 02:40:00,
2013-02-15 19:55:00,18.7,2.0,30.43,West,269,3.0,13.0,48,0.00,,,0.00,weatherlink.com 1.10,2013-02-16 02:55:00,
2013-02-15 20:10:00,18.1,2.0,30.43,WSW,244,5.0,8.0,49,0.00,,,0.00,weatherlink.com 1.10,2013-02-16 03:10:00,
2013-02-15 20:25:00,18.2,2.0,30.43,WSW,242,0.0,12.0,49,0.00,,,0.00,weatherlink.com 1.10,2013-02-16 03:25:00,
2013-02-15 20:40:00,18.5,2.0,30.42,WSW,258,0.0,6.0,48,0.00,,,0.00,weatherlink.com 1.10,2013-02-16 03:40:00,
2013-02-15 20:55:00,19.1,2.0,30.43,WSW,255,0.0,8.0,48,0.00,,,0.00,weatherlink.com 1.10,2013-02-16 03:55:00,
2013-02-15 21:10:00,19.0,2.0,30.43,West,261,0.0,4.0,47,0.00,,,0.00,weatherlink.com 1.10,2013-02-16 04:10:00,
2013-02-15 21:25:00,18.4,2.0,30.43,South,188,3.0,7.0,48,0.00,,,0.00,weatherlink.com 1.10,2013-02-16 04:25:00,
2013-02-15 21:41:00,18.9,2.0,30.42,South,180,0.0,6.0,47,0.00,,,0.00,weatherlink.com 1.10,2013-02-16 04:41:00,
2013-02-15 21:55:00,19.7,2.0,30.42,South,189,0.0,5.0,46,0.00,,,0.00,weatherlink.com 1.10,2013-02-16 04:55:00,
2013-02-15 22:11:00,19.9,2.0,30.42,SW,230,0.0,2.0,46,0.00,,,0.00,weatherlink.com 1.10,2013-02-16 05:11:00,
2013-02-15 22:26:00,19.4,2.0,30.42,West,259,0.0,3.0,47,0.00,,,0.00,weatherlink.com 1.10,2013-02-16 05:26:00,
2013-02-15 22:41:00,19.5,2.0,30.41,WSW,239,0.0,0.0,47,0.00,,,0.00,weatherlink.com 1.10,2013-02-16 05:41:00,
2013-02-15 22:59:00,19.7,3.0,30.41,WSW,253,0.0,6.0,49,0.00,,,0.00,weatherlink.com 1.10,2013-02-16 05:59:00,
2013-02-15 23:11:00,20.5,4.0,30.41,WSW,246,0.0,3.0,48,0.00,,,0.00,weatherlink.com 1.10,2013-02-16 06:11:00,
2013-02-15 23:26:00,20.0,4.0,30.41,South,186,0.0,4.0,49,0.00,,,0.00,weatherlink.com 1.10,2013-02-16 06:26:00,
2013-02-15 23:42:00,19.5,4.0,30.41,SE,144,0.0,0.0,50,0.00,,,0.00,weatherlink.com 1.10,2013-02-16 06:42:00,
2013-02-15 23:56:00,18.5,5.0,30.41,SSE,165,0.0,2.0,55,0.00,,,0.00,weatherlink.com 1.10,2013-02-16 06:56:00,